Flag for U.S.A. Weather past 2 weeks in Carrollton, Texas, U.S.A.

Now
83 °F

Passing clouds.


Feels Like: 83 °F
Forecast: 59 / 81 °F
Wind: No wind

Location: Dallas Love Field

Current Time: Oct 20, 2014 at 4:39:52 PM

Latest Report: Oct 20, 2014 at 3:53 PM


Visibility: 10 mi

Pressure: 29.99 "Hg

Humidity: 44%

Dew point: 59 °F

Location of CarrolltonLocation

Historic Weather in Carrollton — Graph

°F

Carrollton temperature yesterday

Maximum temperature yesterday: 76 °F (at 3:53 PM)
Minimum temperature yesterday: 60 °F (at 6:53 AM)
Average temperature yesterday: 67 °F

Past Weeks' High & Low Weather Summary

 TemperatureHumidityPressure
High96 °F (Oct 7, 3:53 PM)97% (Oct 11, 12:53 AM)30.16 "Hg (Oct 11, 12:53 AM)
Low51 °F (Oct 15, 5:53 AM)19% (Oct 16, 3:53 PM)29.53 "Hg (Oct 13, 1:53 AM)
Average72 °F62%29.93 "Hg
* Reported Oct 5 2:53 PM — Oct 20 2:53 PM, Carrollton, Weather by CustomWeather, © 2014

Note: Actual official high and low records may vary slightly from our data, if they occured in-between our weather recording intervals... More about our weather records

Advertising

Carrollton weather history for previous 24 hours

 ConditionsComfort  
Time TempWeatherWind HumidityBarometerVisibility
2:53 PM
Oct 20
80 °FPassing clouds.5 mph51%30.00 "Hg10 mi
1:53 PM80 °FPassing clouds.6 mph52%30.02 "Hg10 mi
12:53 PM78 °FPassing clouds.No wind56%30.06 "Hg10 mi
11:53 AM74 °FPassing clouds.6 mph62%30.08 "Hg10 mi
10:53 AM71 °FPassing clouds.No wind61%30.09 "Hg10 mi
9:53 AM67 °FPassing clouds.5 mph68%30.10 "Hg10 mi
8:53 AM63 °FScattered clouds.7 mph78%30.08 "Hg10 mi
7:53 AM60 °FPassing clouds.6 mph80%30.07 "Hg10 mi
6:53 AM60 °FPassing clouds.3 mph80%30.06 "Hg10 mi
5:53 AM59 °FPassing clouds.3 mph84%30.04 "Hg10 mi
4:53 AM61 °FPassing clouds.No wind75%30.03 "Hg10 mi
3:53 AM61 °FPassing clouds.5 mph75%30.03 "Hg10 mi
2:53 AM63 °FPassing clouds.6 mph68%30.03 "Hg10 mi
1:53 AM63 °FPassing clouds.10 mph68%30.03 "Hg10 mi
12:53 AM64 °FPassing clouds.10 mph65%30.03 "Hg10 mi
11:53 PM
Oct 19
65 °FPassing clouds.8 mph66%30.04 "Hg10 mi
9:53 PM68 °FPassing clouds.9 mph59%30.06 "Hg10 mi
8:53 PM68 °FPassing clouds.7 mph63%30.06 "Hg10 mi
7:53 PM72 °FPassing clouds.7 mph57%30.05 "Hg10 mi
6:53 PM73 °FPassing clouds.7 mph55%30.04 "Hg10 mi
5:53 PM75 °FPassing clouds.7 mph52%30.03 "Hg10 mi
4:53 PM76 °FPassing clouds.8 mph50%30.04 "Hg10 mi
Weather by CustomWeather, © 2014

See weather overviewHow to use our weather pages